Location: C.E.K. Mees Observatory
(42.7003°N, 77.4088°W)
Time: 20:44:00
(UTC-04:00)

Vanguard 3 - Visible Passes

Search period start: 20 June 2018 00:00
Search period end: 30 June 2018 00:00
Orbit: 508 x 3264 km, 33.3° (Epoch: 20 June)

Date Brightness Start Highest point End Pass type
(mag) Time Alt. Az. Time Alt. Az. Time Alt. Az.
20 Jun 9.4 02:42:35 11° SE 02:42:48 11° SE 02:44:18 10° ESE visible
20 Jun 8.8 04:47:24 10° SW 04:53:03 37° SSE 05:02:27 10° E visible
21 Jun 8.6 03:37:24 19° S 03:39:42 24° SSE 03:45:51 10° E visible
22 Jun 9.3 02:27:39 11° SE 02:27:39 11° SE 02:28:29 10° ESE visible
22 Jun 8.5 04:32:13 12° SW 04:37:05 37° SSE 04:45:32 10° E visible
23 Jun 8.3 03:22:29 22° S 03:23:45 24° SSE 03:29:20 10° ESE visible
24 Jun 8.3 04:17:20 15° SW 04:21:11 35° SSE 04:28:44 10° ESE visible
25 Jun 8.2 03:07:37 24° SSE 03:07:54 24° SSE 03:12:55 10° ESE visible
26 Jun 8.1 04:02:31 19° SW 04:05:22 33° S 04:12:02 10° ESE visible
27 Jun 8.2 02:52:51 23° SSE 02:52:51 23° SSE 02:56:36 10° ESE visible
28 Jun 7.8 03:47:49 24° SSW 03:49:37 31° S 03:55:27 10° ESE visible
29 Jun 8.5 02:38:14 18° SE 02:38:14 18° SE 02:40:24 10° ESE visible
29 Jun 8.2 04:43:00 10° WSW 04:47:22 31° S 04:54:00 10° SE visible
